MST,Max TemperatureF,Mean TemperatureF,Min TemperatureF,Max Dew PointF,MeanDew PointF,Min DewpointF,Max Humidity, Mean Humidity, Min Humidity, Max Sea Level PressureIn, Mean Sea Level PressureIn, Min Sea Level PressureIn, Max VisibilityMiles, Mean VisibilityMiles, Min VisibilityMiles, Max Wind SpeedMPH, Mean Wind SpeedMPH, Max Gust SpeedMPH,PrecipitationIn, CloudCover, Events, WindDirDegrees
2013-2-1,40,25,10,33,23,3,82,76,70,30.21,30.10,30.04,10,10,10,22,9,26,0.00,6,,291
2013-2-2,44,36,27,27,23,19,78,52,42,30.26,30.17,30.14,10,10,10,39,22,50,0.00,0,,313
2013-2-3,55,40,24,25,21,15,80,54,20,30.20,29.97,29.82,10,10,10,25,9,37,0.00,0,,275
2013-2-4,47,36,26,26,23,19,78,59,37,29.94,29.87,29.81,10,10,10,23,7,31,0.00,6,,290
2013-2-5,48,42,35,28,26,22,68,56,42,30.04,29.92,29.78,10,10,10,18,11,23,0.00,4,,231
2013-2-6,49,38,26,26,23,20,77,59,36,30.08,29.90,29.74,10,10,10,26,9,34,0.00,2,,318
2013-2-7,49,36,23,21,19,16,78,53,26,30.18,30.11,30.01,10,10,10,15,7,,0.00,2,,224
2013-2-8,41,34,26,24,21,19,85,62,44,29.98,29.92,29.88,10,10,10,16,9,,0.00,3,,25
2013-2-9,36,28,21,27,22,18,100,88,59,29.91,29.87,29.74,10,4,0,23,10,24,0.00,6,Fog,10
2013-2-10,30,24,19,27,23,10,93,81,62,30.12,29.82,29.68,10,4,1,38,28,50,0.00,8,Rain-Snow,336
2013-2-11,33,20,7,16,10,2,79,63,45,30.19,30.12,30.05,10,10,10,13,7,,0.00,0,,249
2013-2-12,46,32,18,21,16,7,65,51,34,30.06,30.01,29.91,10,10,10,23,8,30,0.00,4,,293
2013-2-13,49,38,28,29,24,19,85,59,35,29.99,29.86,29.77,10,10,10,37,17,43,0.00,3,Rain,303
2013-2-14,32,22,13,25,19,8,86,68,49,30.40,30.25,30.00,10,8,3,40,26,48,0.00,6,Snow,327
2013-2-15,32,22,12,16,12,5,86,62,37,30.46,30.37,30.14,10,10,10,20,11,23,0.00,5,Snow,322
2013-2-16,55,42,29,25,23,13,65,48,31,30.12,29.97,29.81,10,10,10,28,11,34,0.00,2,,315
2013-2-17,53,40,28,29,24,20,80,60,28,29.78,29.67,29.51,10,10,10,39,13,47,0.00,1,Rain,306
2013-2-18,32,24,14,23,17,9,79,64,53,30.26,30.03,29.76,10,10,6,37,29,50,0.00,6,Snow,337
2013-2-19,46,28,10,12,8,3,92,79,18,30.32,30.28,30.14,10,10,9,24,9,30,0.00,7,Snow,128
2013-2-20,32,22,11,18,11,4,79,65,42,30.12,30.00,29.94,10,10,10,25,20,31,0.00,5,,165
2013-2-21,26,20,15,21,17,13,93,87,79,30.08,30.05,29.87,10,7,2,15,10,,0.02,8,Snow,137
2013-2-22,37,25,13,25,16,10,93,81,58,30.06,29.99,29.84,10,9,5,10,3,,0.02,6,Snow,191
2013-2-23,44,30,16,30,14,9,85,51,25,29.83,29.75,29.68,10,10,10,10,5,,0.00,4,,318
2013-2-24,33,28,20,32,27,14,100,85,64,30.17,30.00,29.83,10,9,2,26,16,34,0.01,7,Rain-Snow,336
2013-2-25,49,32,16,18,12,4,81,50,16,30.18,30.00,29.85,10,10,10,24,9,28,0.00,0,,206
2013-2-26,42,31,20,32,25,10,100,77,48,30.17,30.00,29.83,10,8,1,36,15,43,0.00,5,Snow,330
2013-2-27,40,31,19,22,19,16,83,65,41,30.32,30.26,30.18,10,10,10,23,17,31,0.00,3,,349
2013-2-28,41,28,15,28,22,12,92,70,44,30.32,30.28,30.23,10,9,2,21,5,25,0.00,4,Snow,346